Tracking 28091 objects as of 29-Sep-2023
HD Live streaming from Space Station
objects crossing your sky now

HINCUBE

Track HINCUBE now!
10-day predictions
HINCUBE is classified as:


NORAD ID: 39445
Int'l Code: 2013-066AF
Perigee: 577.7 km
Apogee: 648.0 km
Inclination: 97.7 °
Period: 96.8 minutes
Semi major axis: 6983 km
RCS: Unknown
Launch date: November 21, 2013
Source: Norway (NOR)
Launch site: Orenburg, Russia (OREN)

Uplink (MHz):
Downlink (MHz): 437.305
Beacon (MHz):
Mode:
Call sign:
Status: Inactive

Your satellite tracking list
Your tracking list is empty




NASA's NSSDC Master Catalog

Two Line Element Set (TLE):
1 39445U 13066AF  23271.86843880  .00006398  00000-0  69502-3 0  9992
2 39445  97.6843 232.4029 0050350 294.5468  65.0505 14.87516987530989
Source of the keplerian elements: AFSPC